This is the latest recevied weather packets stored in our database for station/object AD0YN. If no packets are shown the sender has not sent any weather packets the latest 10 day(s).
| Time | Temp. | Humidity | Pressure | Rain* | Wind** | Luminosity | Snow |
|---|---|---|---|---|---|---|---|
| 1777837541 | 24.44° C | 36% | 1009.9 hPa | 0 mm | - | 803 W/m² | - |
| 1777837241 | 23.89° C | 41% | 1010.1 hPa | 0 mm | - | 853 W/m² | - |
| 1777836938 | 23.89° C | 38% | 1009.9 hPa | 0 mm | - | 728 W/m² | - |
| 1777836633 | 23.89° C | 38% | 1010 hPa | 0 mm | - | 704 W/m² | - |
| 1777836330 | 23.89° C | 40% | 1010.1 hPa | 0 mm | - | 874 W/m² | - |
| 1777836026 | 23.89° C | 39% | 1010.2 hPa | 0 mm | - | 844 W/m² | - |
| 1777835722 | 23.33° C | 39% | 1010.3 hPa | 0 mm | - | 734 W/m² | - |
| 1777835419 | 23.33° C | 39% | 1010.4 hPa | 0 mm | - | 670 W/m² | - |
| 1777835117 | 22.78° C | 41% | 1010.2 hPa | 0 mm | - | 660 W/m² | - |
| 1777834814 | 23.33° C | 40% | 1010.4 hPa | 0 mm | - | 786 W/m² | - |
| 1777834510 | 23.33° C | 40% | 1010.7 hPa | 0 mm | - | 833 W/m² | - |
| 1777834209 | 22.78° C | 40% | 1010.8 hPa | 0 mm | - | 841 W/m² | - |
| 1777833906 | 22.78° C | 41% | 1010.7 hPa | 0 mm | - | 794 W/m² | - |
| 1777833602 | 22.22° C | 40% | 1010.8 hPa | 0 mm | - | 638 W/m² | - |
| 1777833299 | 22.78° C | 41% | 1010.8 hPa | 0 mm | - | 637 W/m² | - |
| 1777832996 | 22.78° C | 38% | 1010.8 hPa | 0 mm | - | 608 W/m² | - |
| 1777832695 | 23.33° C | 40% | 1011 hPa | 0 mm | - | 755 W/m² | - |
| 1777832392 | 23.33° C | 39% | 1010.8 hPa | 0 mm | - | 825 W/m² | - |
| 1777832089 | 22.78° C | 38% | 1010.9 hPa | 0 mm | - | 859 W/m² | - |
| 1777831785 | 22.78° C | 38% | 1010.9 hPa | 0 mm | - | 781 W/m² | - |
| 1777831484 | 22.78° C | 39% | 1011 hPa | 0 mm | - | 861 W/m² | - |
| 1777831180 | 22.78° C | 40% | 1011.2 hPa | 0 mm | - | 606 W/m² | - |
| 1777830878 | 22.22° C | 41% | 1011 hPa | 0 mm | - | 802 W/m² | - |
| 1777830573 | 22.22° C | 42% | 1011.1 hPa | 0 mm | - | 755 W/m² | - |
| 1777830272 | 22.22° C | 39% | 1011.1 hPa | 0 mm | - | 726 W/m² | - |
* Rain latest hour (hover to see other rain measurements)
** Current wind speed in m/s (hover to see current wind gust speed)